This is the latest recevied weather packets stored in our database for station/object S57D-6. If no packets are shown the sender has not sent any weather packets the latest 10 day(s).
| Time | Temp. | Humidity | Pressure | Rain* | Wind** | Luminosity | Snow |
|---|---|---|---|---|---|---|---|
| 1777895276 | 26.11° C | 39% | 1014.9 hPa | 0 mm | - | - | - |
| 1777894976 | 26.11° C | 39% | 1015 hPa | 0 mm | - | - | - |
| 1777894675 | 25.56° C | 39% | 1015 hPa | 0 mm | - | - | - |
| 1777894376 | 25.56° C | 39% | 1015 hPa | 0 mm | - | - | - |
| 1777894075 | 26.11° C | 40% | 1015 hPa | 0 mm | - | - | - |
| 1777893785 | 25.56° C | 40% | 1015 hPa | 0 mm | - | - | - |
| 1777893233 | 26.11° C | 40% | 1015.3 hPa | 0 mm | - | - | - |
| 1777892932 | 26.11° C | 40% | 1015.2 hPa | 0 mm | - | - | - |
| 1777892332 | 25.56° C | 41% | 1015.2 hPa | 0 mm | - | - | - |
| 1777892034 | 25.56° C | 41% | 1015.3 hPa | 0 mm | - | - | - |
| 1777891731 | 25.56° C | 41% | 1015.3 hPa | 0 mm | - | - | - |
| 1777891131 | 25° C | 43% | 1015.6 hPa | 0 mm | - | - | - |
| 1777890530 | 25° C | 45% | 1015.8 hPa | 0 mm | - | - | - |
| 1777890231 | 24.44° C | 45% | 1015.9 hPa | 0 mm | - | - | - |
| 1777889930 | 23.89° C | 48% | 1016 hPa | 0 mm | - | - | - |
| 1777889329 | 22.78° C | 47% | 1016.1 hPa | 0 mm | - | - | - |
| 1777888728 | 22.78° C | 49% | 1016.2 hPa | 0 mm | - | - | - |
| 1777888128 | 22.22° C | 47% | 1016.3 hPa | 0 mm | - | - | - |
| 1777887830 | 22.22° C | 49% | 1016.5 hPa | 0 mm | - | - | - |
| 1777887527 | 22.22° C | 49% | 1016.5 hPa | 0 mm | - | - | - |
| 1777886927 | 21.67° C | 51% | 1016.6 hPa | 0 mm | - | - | - |
| 1777886326 | 21.11° C | 52% | 1016.7 hPa | 0 mm | - | - | - |
| 1777885726 | 20.56° C | 55% | 1016.8 hPa | 0 mm | - | - | - |
| 1777885125 | 19.44° C | 56% | 1016.9 hPa | 0 mm | - | - | - |
| 1777884524 | 18.89° C | 57% | 1016.8 hPa | 0 mm | - | - | - |
* Rain latest hour (hover to see other rain measurements)
** Current wind speed in m/s (hover to see current wind gust speed)